SCP
0 1 1 1 1 0 0 0 0 0 0 0 0 0 0 0 0 0 0 0 0 0 0 0 0 0 0 0 0 0 0 0 0 0 0 0 0 0 0 0 0 0 0
1 1 1 1 1 1 0 0 0 0 0 0 0 0 0 0 0 0 0 0 0 0 0 0 0 0 0 0 0 0 0 0 0 0 0 0 0 0 0 0 0 0 0
1 1 1 1 1 1 1 0 0 0 0 0 0 0 0 0 0 0 0 0 0 0 0 0 0 0 0 0 1 1 1 0 0 0 0 0 0 0 0 0 0 0 0
1 1 1 1 1 1 1 1 0 0 0 0 0 0 0 0 0 0 0 0 0 0 0 0 0 0 0 0 1 1 1 0 0 0 0 0 0 0 0 0 0 0 0
1 1 1 1 1 1 1 1 1 1 0 0 0 0 0 0 0 0 0 0 0 0 0 0 0 0 0 0 1 1 1 1 0 0 0 0 0 0 0 0 0 0 0
1 1 1 1 1 1 1 1 1 1 1 1 0 0 0 0 0 0 0 0 0 0 0 0 0 0 0 0 1 1 1 1 0 0 0 0 0 0 0 0 0 0 0
1 1 1 1 1 1 1 1 1 1 1 1 1 0 0 0 0 0 0 0 0 0 0 0 0 0 0 0 0 1 1 1 1 0 0 0 0 0 0 0 0 0 0
1 1 1 1 1 1 1 1 1 1 1 1 0 0 0 0 0 0 0 0 0 0 0 0 0 0 0 0 0 1 1 1 1 0 0 0 0 0 0 0 0 0 0
1 1 1 1 1 1 1 0 0 1 1 0 0 0 0 0 0 0 0 0 0 0 0 0 0 0 0 0 0 0 1 1 0 0 0 0 0 0 0 0 0 0 0
1 1 1 1 1 1 0 0 0 0 0 0 0 0 0 0 0 0 0 0 0 0 0 0 0 1 1 0 0 0 0 0 0 0 0 0 0 0 0 0 0 0 0
1 1 1 1 1 1 1 0 0 0 0 0 0 0 0 0 0 0 0 0 0 0 0 0 0 1 1 0 0 0 0 0 0 0 0 0 0 1 1 1 1 0 0
1 1 1 1 1 1 1 0 0 0 0 0 0 0 0 0 0 0 0 0 0 0 0 0 1 1 1 0 0 0 0 0 0 1 1 0 0 1 1 1 1 1 0
1 1 1 1 1 1 1 0 0 0 0 0 1 1 1 1 1 0 0 0 0 0 0 0 1 1 1 0 1 1 1 1 1 1 1 0 0 1 1 1 1 1 1
0 0 1 1 1 1 0 0 0 0 0 0 1 1 1 1 1 1 1 0 0 0 0 0 0 1 0 0 1 1 1 1 1 1 1 0 0 0 1 1 1 1 1
1 1 1 1 1 0 0 0 0 0 0 0 0 0 0 1 1 0 1 1 0 0 0 0 0 0 0 0 0 0 0 1 1 1 1 0 0 0 1 1 1 1 1
1 1 1 1 1 1 0 0 0 0 0 0 0 0 0 0 0 0 0 0 0 0 0 0 0 0 0 0 0 0 0 0 1 1 1 0 0 0 0 1 1 1 1
0 1 1 1 1 1 0 0 0 0 0 0 0 0 0 0 0 0 0 0 0 0 0 0 0 0 0 0 0 0 0 1 1 1 1 1 0 0 0 0 1 1 1
0 0 0 1 1 1 1 1 0 0 0 0 0 0 0 0 0 0 0 0 0 0 0 0 0 0 0 0 0 0 0 0 1 1 1 1 1 0 0 0 0 1 1
0 0 0 0 0 1 1 1 1 0 0 0 0 0 0 0 0 0 0 0 0 0 0 0 0 0 0 0 0 0 0 0 0 1 1 0 0 0 0 0 0 0 1
0 0 0 0 0 0 1 1 1 1 0 0 0 0 0 0 0 0 0 0 0 0 0 0 0 0 0 0 0 0 0 0 0 0 0 0 0 0 0 0 0 0 0
0 0 0 0 0 0 1 1 1 1 1 0 0 0 0 0 0 0 0 0 0 0 0 0 0 0 0 0 0 0 0 0 0 0 0 0 0 0 0 0 1 1 1
1 0 0 0 0 0 0 1 1 1 1 1 0 0 0 0 0 0 0 0 0 0 0 0 0 0 0 0 0 0 0 0 0 0 0 0 0 0 0 0 0 1 1
1 0 0 0 0 1 0 0 0 1 1 1 1 0 0 0 0 0 0 0 0 0 0 0 0 0 0 0 0 0 0 0 0 0 0 0 0 0 0 0 0 0 0
0 0 0 0 0 0 0 0 0 1 1 1 1 1 0 0 0 0 0 0 0 0 0 0 0 0 0 0 0 0 0 0 0 0 0 0 0 0 0 0 0 0 0
0 0 0 0 0 0 0 0 0 0 0 1 1 1 1 0 0 0 0 0 0 0 0 0 0 0 0 0 0 0 0 0 0 0 0 0 0 0 0 0 0 0 0
0 0 0 0 0 0 0 0 0 0 0 1 1 2 1 1 0 0 0 0 0 0 0 0 0 0 0 0 0 0 0 0 0 0 0 0 0 0 0 0 0 0 0
Wind_Speed
4 5 6 7 9 10 10 10 10 10 10 10 10 10 10 10 10 10 10 11 11 11 11 11 12 12 12 12 12 12 12 11 11 11 11 11 11 11 11 9 7 8 10
6 6 6 6 9 10 10 10 10 10 9 10 10 10 10 10 10 10 10 10 10 11 11 11 11 11 11 11 11 11 11 11 10 9 7 8 9 9 9 8 8 7 9
7 7 8 6 8 9 9 9 9 9 9 9 9 9 9 9 9 9 9 9 9 10 10 10 10 10 10 10 10 10 10 9 8 6 3 5 7 8 8 8 8 8 8
7 7 7 7 8 8 8 8 8 8 8 8 8 9 9 9 9 9 9 9 9 9 9 9 9 9 9 8 8 9 9 8 6 2 3 5 5 7 7 7 7 7 7
7 7 8 7 7 8 8 8 7 7 7 7 8 8 8 8 8 8 8 8 8 8 8 8 8 8 7 7 7 7 7 7 4 2 4 4 4 6 6 6 6 6 5
7 6 8 6 7 7 7 7 7 7 7 7 7 7 7 8 8 8 7 7 7 7 7 7 7 7 6 6 6 6 6 4 1 3 3 4 4 5 5 5 4 4 4
6 6 7 6 6 6 6 6 6 6 6 7 7 6 6 7 7 7 7 6 6 6 6 6 6 6 6 6 6 6 5 3 2 3 3 3 4 5 4 4 3 3 3
6 6 7 6 6 6 5 5 5 6 6 6 6 6 6 6 6 6 6 6 5 5 5 5 5 5 5 5 5 5 4 2 1 2 2 3 4 3 3 3 3 3 3
6 5 5 5 5 5 5 4 4 4 4 5 5 5 5 5 6 6 6 5 5 5 5 4 4 4 4 4 4 4 4 2 1 1 1 2 3 3 3 3 3 3 3
5 4 4 4 4 4 4 4 4 4 4 4 5 5 5 5 5 5 4 5 4 4 4 3 3 3 3 3 3 3 1 2 1 1 1 2 3 3 3 3 3 3 3
4 3 3 3 3 3 3 4 3 4 4 4 4 4 3 3 3 3 4 4 3 3 3 2 2 3 2 2 2 1 2 1 1 1 1 3 3 3 3 3 3 3 3
3 2 2 2 2 2 2 3 2 2 2 2 2 2 1 1 1 1 4 3 3 2 2 2 1 1 2 1 1 2 1 1 2 1 1 3 4 4 4 4 4 4 3
2 2 1 1 1 1 1 1 1 1 1 1 1 1 1 1 1 1 1 2 2 2 1 1 2 2 2 1 2 2 2 2 2 2 2 3 5 5 5 5 5 4 4
2 2 1 1 1 1 1 1 1 1 1 1 1 1 1 1 1 1 1 1 1 1 1 2 1 2 2 2 3 3 3 3 2 2 2 3 5 6 6 6 6 5 5
2 1 1 1 1 1 1 0 1 0 0 0 0 0 0 1 1 1 1 1 2 2 2 2 3 3 3 3 3 4 4 4 4 4 2 2 5 6 7 7 6 6 6
1 2 1 1 1 1 1 1 1 0 0 0 0 0 1 1 1 1 1 2 2 2 3 3 3 3 3 3 4 4 5 5 5 5 4 3 4 6 7 8 8 7 7
1 1 2 1 1 1 1 1 1 1 0 0 1 1 1 1 2 1 1 2 2 2 3 3 3 3 3 3 4 5 5 5 5 6 5 5 4 4 6 8 8 8 9
1 1 2 1 1 1 0 0 0 1 0 0 0 1 2 2 2 2 2 2 2 2 2 2 2 3 3 4 4 4 4 5 6 6 6 5 5 4 4 6 7 9 9
1 1 2 2 2 1 0 0 0 1 1 0 1 1 2 2 3 2 2 2 3 2 2 2 2 3 4 4 4 5 5 5 6 6 6 6 5 5 5 4 6 7 9
2 2 2 2 2 1 0 0 0 1 1 1 1 1 2 2 2 2 2 3 2 2 2 2 3 3 3 4 5 5 6 6 5 6 6 6 5 6 6 5 5 5 7
3 3 2 2 2 1 0 1 0 0 0 0 1 2 2 2 2 2 2 2 2 2 3 3 3 3 3 3 4 5 6 6 6 5 5 5 6 6 6 6 5 5 4
2 2 2 1 1 1 1 1 1 1 0 1 1 1 2 2 2 2 2 2 2 3 3 3 3 3 2 2 3 4 4 4 3 5 5 5 6 5 5 6 6 5 5
1 2 1 1 1 1 1 0 0 0 0 1 2 2 2 2 2 2 3 3 3 3 3 3 3 3 3 3 3 3 4 4 4 4 5 5 5 5 5 4 5 5 6
2 1 2 1 1 1 1 1 1 1 1 1 2 2 2 3 3 2 3 3 3 3 3 3 3 3 4 3 3 4 5 5 5 5 4 4 6 6 6 5 5 5 6
2 2 1 1 1 1 1 0 1 1 1 1 2 2 2 2 2 3 3 3 3 3 4 4 4 4 3 4 4 4 5 5 6 6 7 6 5 5 6 6 5 5 5
2 2 2 1 1 1 1 1 0 1 1 1 2 2 2 2 2 3 3 3 3 3 4 4 4 4 4 5 4 4 4 5 5 6 8 8 7 6 6 5 5 4 4
Wind_Direction
160 154 146 145 136 131 126 122 118 116 115 113 110 106 103 103 101 98 95 93 92 92 91 90 87 85 84 84 83 81 79 75 73 72 71 73 75 73 71 63 60 73 66
156 157 142 140 135 130 127 124 121 119 116 115 113 110 105 102 102 101 99 95 93 92 91 89 87 85 84 84 84 83 81 79 75 70 70 83 77 72 71 63 52 65 66
150 150 147 132 129 127 124 124 123 120 120 116 116 113 109 105 103 100 100 96 95 94 93 91 88 86 85 84 83 84 83 80 75 71 73 86 83 75 72 69 67 68 67
148 148 146 125 124 125 123 122 121 121 122 120 117 114 111 108 106 102 99 95 94 94 92 92 91 89 86 85 84 85 84 82 74 67 82 73 79 76 74 71 66 65 64
138 137 125 116 119 121 120 120 120 122 121 122 119 114 111 112 109 105 102 99 96 96 94 92 91 89 86 86 86 86 85 83 82 86 73 72 73 73 71 70 65 59 56
135 131 120 109 110 118 118 119 123 122 117 117 120 117 116 115 111 106 103 100 98 98 96 94 92 89 87 87 85 83 83 81 138 82 70 67 69 69 67 67 65 56 51
129 127 126 107 103 107 114 120 123 124 121 118 121 118 118 116 112 111 107 103 101 98 95 92 89 87 84 83 83 80 78 60 60 72 62 58 59 54 55 54 48 46 46
121 119 121 100 97 99 98 105 117 121 121 118 116 116 115 114 111 110 108 106 102 99 96 92 90 89 88 83 81 77 67 22 89 67 61 57 49 38 41 42 33 26 25
113 114 119 126 119 103 97 91 98 111 116 113 107 102 99 105 103 99 99 99 98 98 98 95 89 88 87 80 78 76 67 10 318 44 35 41 34 15 20 23 24 20 14
106 108 110 120 124 129 130 101 90 101 106 103 101 99 98 108 108 101 105 96 96 96 98 97 94 89 81 73 69 70 61 258 326 353 354 37 10 345 350 357 357 355 349
92 93 99 109 113 122 124 106 104 95 97 111 115 111 133 151 147 134 105 92 98 95 95 96 95 89 91 93 70 49 250 281 320 316 330 13 333 321 322 325 326 324 325
96 91 85 97 107 121 117 129 124 114 115 127 136 149 166 157 145 145 115 108 105 110 121 117 112 157 236 222 152 218 252 283 281 295 346 348 310 307 308 311 311 310 313
113 91 88 89 110 126 126 127 117 114 115 126 136 152 163 178 172 188 170 159 173 187 198 173 210 236 254 269 275 269 278 274 279 286 327 332 301 299 297 300 304 300 301
64 63 65 88 104 131 137 133 126 120 120 106 117 152 200 220 223 219 225 215 214 217 236 248 249 253 253 253 259 266 266 268 273 278 309 323 299 295 291 292 297 293 293
39 28 31 58 91 101 136 120 103 99 104 98 80 106 282 259 261 248 245 241 241 237 232 241 247 250 254 256 257 260 263 266 268 268 270 283 287 289 288 285 285 285 287
30 9 4 20 64 110 130 126 121 85 31 40 39 310 258 265 274 272 270 266 258 255 251 249 254 259 263 264 265 264 266 264 261 263 269 266 257 276 286 285 283 283 284
14 13 10 1 24 97 141 162 121 114 102 35 349 323 307 278 263 260 267 274 277 274 269 263 259 259 263 265 267 267 266 265 265 264 265 271 268 258 270 281 285 284 284
25 28 18 14 18 53 293 215 145 130 129 319 310 322 308 304 300 280 280 284 284 276 268 271 274 270 266 270 273 271 266 262 261 262 263 263 267 269 261 267 275 282 284
24 34 25 11 5 348 287 244 140 117 105 9 347 335 317 309 307 302 294 299 301 280 270 274 271 270 273 275 275 274 270 263 260 259 257 258 259 264 269 265 261 271 279
21 29 21 7 359 347 318 210 98 71 57 28 10 342 340 327 319 304 300 306 304 298 294 292 281 277 278 285 281 275 270 264 258 258 257 257 258 260 261 266 262 259 262
29 27 17 4 358 349 328 285 249 295 325 358 351 346 352 344 337 319 307 306 302 286 287 295 289 283 286 298 287 285 268 255 254 259 259 261 259 258 261 263 265 269 264
23 11 2 358 350 327 296 274 263 271 280 305 327 342 337 330 325 312 305 302 302 287 284 287 288 290 287 289 288 293 287 263 238 251 257 260 264 262 263 264 267 267 273
356 337 325 337 336 313 290 245 209 155 310 346 337 332 328 328 331 324 305 300 303 296 289 285 278 277 283 278 275 277 288 289 305 256 258 260 264 269 273 270 268 270 271
323 324 309 330 352 341 342 11 320 272 282 302 308 315 329 329 330 326 318 312 308 303 300 289 277 275 275 278 272 262 270 287 284 289 271 268 279 276 274 271 269 269 269
346 341 313 334 9 2 21 29 308 313 312 316 324 330 323 322 321 327 319 314 311 304 301 298 288 276 268 270 269 271 264 268 263 273 283 288 283 276 277 273 270 270 272
16 14 1 9 24 8 5 9 320 283 291 308 315 318 318 318 316 322 311 307 305 301 297 292 289 278 269 270 268 267 266 261 264 263 273 285 288 290 286 276 272 280 286